Find Starlink 3323

NORAD ID: 50804 Int'l Des: 2022-001 Owner: SPXS Country: US Constellation: starlink operational
LEOCIRCULAR

現在のビュー

3D地球を読み込み中...

About Starlink 3323

Starlink 3323 (NORAD 50804) is a starlink constellation satellite (v1.5) launched Jan 6, 2022 by SPXS of US. It operates in LEO, CIRCULAR orbit with a mass of 297.00 kg.

Starlink 3323について

説明を読み込み中...

次回通過

Passes for default location (London). Set your location on the main map for personalized predictions.

高度履歴

Loading altitude history...

軌道要素

1 50804U 22001B 26168.04904707 .00003788 00000-0 25603-3 0 9991
2 50804 53.1608 72.9843 0001237 94.1072 266.0061 15.08828142245541
Epoch: Jun 17, 2026 • Age: 32 hours

現在のステータス

高度 543.1 km
速度 7.60 km/s
衛星直下点 41.83°N, 63.88°E
打ち上げ日 Jan 6, 2022
運用期間 4.4 years
タイプ internet

技術仕様

分類 Payload
質量 297.00 kg
乾燥質量 275.00 kg
総質量 297.00 kg
長さ 0.20 m
直径 2.80 m
スパン 9.00 m
形状 Box + pan
製造者 SPXS
バスタイプ Starlink
フェーズステータス In Orbit
所有者/国 SPXS/US

Most Searched